Other Public Products
Issued by NWS Charleston, SC

Home | Current Version | Previous Version | Text Only | Print | Product List | Glossary On
Versions: 1 2 3 4 5 6 7 8 9 10 11 12 13 14 15 16 17 18 19 20 21 22 23 24 25 26 27 28 29 30 31 32 33 34 35 36 37 38 39 40 41 42 43 44 45 46 47 48 49 50
706
FPUS82 KCHS 200527
OPUCHS

TEST...KCHS/KSAV Gateway Observations...TEST
National Weather Service Charleston SC
1200 AM EST MON FEB 20 2017

NOTE: "fair" indicates few or no clouds below 12,000 feet with no
significant weather and/or obstructions to visibility.

SCZ050-WAZ558-NCZ071-TXZ119-213-PAZ071-DCZ001-FLZ074-172-MI076-
NYZ176-178-MAZ016-IL014-TNZ027-NJZ106-GAZ044-MD014-200600-
...Gateway Observations for Charleston International...

CITY           SKY/WX    TMP DP  RH WIND       PRES   REMARKS
Chas Airport   CLEAR     53  46  77 NW3       30.09R
Seattle        MOCLDY    45  37  73 S9        29.60R
Charlotte      CLEAR     54  41  61 N5        30.11S
Dallas DFW     CLOUDY    71  66  84 S13       29.85R
Dallas Love    CLOUDY    71  65  81 SE21      29.85S
Philladelphia  CLEAR     53  33  46 N7        30.00R
Wash National  MOCLDY    55  42  61 VRB3      30.06R
Baltimore      PTCLDY    50  42  74 W8        30.03R
Miami          PTCLDY    71  68  90 N5        30.08F
Detroit        PTCLDY    42  31  64 NE7       30.18R
Newark         CLEAR     54  32  43 NW17G24   29.98R
Laguardia      CLEAR     54  33  45 NW17G25   29.97R
J F K          CLEAR     53  33  46 NW13      29.98S
Boston Logan   CLOUDY    48  32  53 NW7       29.91R
Ft. Lauderdale PTCLDY    72  64  76 NE5       30.07F
Chicago O`Hare CLOUDY    46  30  53 SE3       30.11R
Chicago Midway MOCLDY    49  33  54 SE5       30.11R
Houston Bush   DRIZZLE   70  68  93 SE15      29.90R FOG
Houston Hobby  CLOUDY    71  69  93 SE12G24   29.90R FOG
Nashville      CLOUDY    53  48  83 CALM      30.15R
Atlanta        PTCLDY    54  46  74 N7        30.13F

$$

GAZ044-118-TXZ119-213-NCZ071-DCZ001-MDZ014-506-PAZ021-071-NJZ106-
NYZ176-178-MAZ106-OHZ011-021-055-MIZ076-KYZ091-ILZ014-INZ047-
MNZ060-200600-
...Gateway Observations for Savannah International...

CITY           SKY/WX    TMP DP  RH WIND       PRES   REMARKS
Savannah Arpt  CLEAR     54  49  83 CALM      30.10R
Atlanta        PTCLDY    54  46  74 N7        30.13F
Charlotte      CLEAR     54  41  61 N5        30.11S
Dallas DFW     CLOUDY    71  66  84 S13       29.85R
Houston Bush   DRIZZLE   70  68  93 SE15      29.90R FOG
Wash National  MOCLDY    55  42  61 VRB3      30.06R
Wash Dulles    CLEAR     52  40  63 NW7       30.06S
Baltimore      PTCLDY    50  42  74 W8        30.03R
Philadelphia   CLEAR     53  33  46 N7        30.00R
Newark         CLEAR     54  32  43 NW17G24   29.98R
Laguardia      CLEAR     54  33  45 NW17G25   29.97R
J F K          CLEAR     53  33  46 NW13      29.98S
Boston         CLOUDY    48  32  53 NW7       29.91R
Pittsburg      PTCLDY    47  42  83 W5        30.14S
Akron          CLEAR     42  33  70 SW5       30.15R
Cleveland      PTCLDY    43  32  65 CALM      30.18R
Cincinnati     PTCLDY    42  42 100 S5        30.16S FOG
Columbus       FOG       37  37 100 CALM      30.18R VSB 1/4
Detroit        PTCLDY    42  31  64 NE7       30.18R
Chicago O`Hare CLOUDY    46  30  53 SE3       30.11R
Minneapolis    CLOUDY    50  38  63 SE13      29.87F
Indianapolis   CLEAR     48  45  89 S8        30.16R

$$




USA.gov is the U.S. government's official web portal to all federal, state and local government web resources and services.